Wind_Speed
40 41 41 41 41 40 39 38 37 35 32 30 30 31 33 35 37 39 40 40 40 42 44 46 48 48 50 56 63 67 68 69 68 67 66 65 63 61
38 39 39 39 38 38 36 34 33 32 29 26 27 29 30 30 29 29 29 30 31 31 32 35 38 40 42 46 53 61 65 67 68 67 67 65 64 62
34 34 34 34 33 32 30 29 28 29 26 23 25 25 26 25 23 21 20 21 22 24 26 27 28 30 33 37 41 48 57 63 66 66 65 63 63 61
30 31 31 30 28 26 25 24 24 24 23 20 21 22 22 20 18 15 13 14 16 18 19 19 19 20 23 27 31 37 45 54 60 62 62 61 59 57
30 29 29 27 25 23 21 21 21 22 21 20 19 19 18 15 13 10 9 11 12 13 13 13 14 16 18 20 23 29 35 44 51 55 57 56 54 51
30 29 27 26 23 21 20 20 20 20 21 19 17 17 16 14 12 10 8 8 9 10 11 13 12 12 14 16 18 24 30 38 44 48 49 48 46 43
31 29 27 25 22 21 20 19 19 19 19 17 15 15 15 14 12 10 8 7 7 8 10 11 10 6 8 12 17 23 29 35 39 42 42 41 38 36
31 29 27 24 21 19 18 17 17 16 15 13 12 13 13 14 13 10 8 7 6 7 8 9 7 1 8 11 16 22 27 32 34 36 36 35 33 31
29 27 25 23 19 17 16 15 14 14 12 9 8 8 9 12 12 10 9 7 5 5 5 5 3 6 11 15 20 24 28 32 34 35 33 33 31 29
27 25 23 21 18 15 13 12 12 11 8 5 4 5 6 10 11 11 9 6 4 2 0 3 6 13 20 23 27 27 29 31 32 32 32 32 31 28
25 23 21 19 16 13 11 10 10 8 6 4 4 6 9 10 12 12 9 7 5 3 3 6 12 19 25 29 31 31 32 33 32 32 32 30 27 25
22 21 18 15 13 11 9 8 7 5 5 7 7 8 10 10 12 12 11 9 6 5 7 11 18 23 27 30 31 31 30 30 31 31 30 30 29 25
20 18 16 12 10 8 7 5 4 4 7 10 10 9 9 9 10 12 12 9 7 7 11 16 21 25 27 28 29 29 29 29 29 30 28 27 26 24
16 15 13 10 8 7 6 5 4 7 10 12 12 10 10 10 11 12 11 9 8 11 15 21 25 27 28 27 27 26 25 24 23 23 22 21 20 19
12 11 9 8 7 8 8 8 9 11 13 14 13 12 12 12 13 13 12 11 10 15 20 24 27 28 28 26 24 22 20 19 19 19 18 17 16 16
8 7 5 8 9 11 12 12 13 14 15 15 14 13 13 15 16 15 13 13 15 18 22 25 27 28 26 24 21 19 18 17 17 17 16 15 17 20
4 3 5 9 12 15 15 15 15 17 17 17 16 14 14 16 18 17 15 16 18 21 23 24 24 23 23 21 19 17 17 17 15 14 15 19 22 23
0 2 6 10 13 17 18 17 17 17 18 18 16 15 15 17 17 17 17 18 20 22 23 22 20 18 16 16 15 15 15 14 15 17 21 24 24 24
3 3 6 10 13 17 19 18 17 17 18 18 18 18 18 18 19 18 17 18 19 20 21 20 18 16 13 11 11 12 14 16 20 22 24 25 25 24
4 4 7 10 12 16 19 20 19 17 18 18 19 19 20 20 19 18 17 16 17 17 17 17 16 14 14 13 12 14 17 23 25 26 25 25 25 23
6 5 8 10 11 13 17 20 20 19 18 18 19 19 20 20 19 17 16 14 14 15 15 14 13 13 13 15 17 20 23 25 25 26 25 25 24 22
7 6 8 11 11 12 15 17 18 18 18 18 19 20 20 20 18 16 14 13 13 14 14 14 14 14 17 21 24 25 25 25 25 26 26 24 23 21
9 8 8 11 12 12 13 14 15 16 17 18 19 20 20 19 17 15 13 12 13 14 15 16 16 18 21 24 26 26 25 25 25 26 25 24 22 19
Wind_Direction
294 294 293 292 290 289 288 288 287 287 286 284 280 278 279 278 277 273 269 265 262 260 259 256 254 252 249 244 238 232 229 227 227 229 230 233 237 241
296 296 295 292 290 288 287 286 287 288 288 284 280 277 279 284 283 278 271 266 264 263 259 255 252 250 249 246 241 234 228 225 225 226 228 231 235 239
301 301 300 297 293 289 286 285 285 288 291 287 283 278 280 284 289 286 275 266 262 257 253 251 251 251 251 248 243 235 228 223 222 223 225 227 232 237
303 305 304 302 298 293 287 284 285 287 291 290 283 279 280 283 289 288 278 266 258 254 254 255 257 257 254 248 240 232 225 220 218 218 220 223 229 233
300 302 303 303 301 296 290 286 285 288 291 291 282 278 275 275 280 282 274 263 260 257 263 272 272 263 254 241 229 221 216 212 211 212 214 218 223 227
295 297 299 300 299 296 292 288 287 290 292 292 280 272 266 263 266 268 266 265 259 269 280 286 283 267 249 227 211 203 198 197 198 201 204 208 212 217
289 290 293 296 297 294 290 288 289 293 293 290 276 267 259 253 253 252 254 253 259 277 291 301 305 279 229 203 193 187 185 186 187 189 193 197 202 206
284 285 286 290 294 293 290 290 291 295 294 290 275 264 252 241 237 234 230 234 258 289 306 318 330 42 148 154 159 162 166 170 172 175 178 182 187 193
280 280 281 284 288 288 287 291 294 298 296 286 270 256 236 222 217 212 211 223 258 293 318 348 30 119 127 137 140 143 149 155 159 161 165 170 176 183
280 278 278 278 281 283 282 287 292 295 287 268 253 227 204 192 192 194 200 213 237 265 37 73 114 135 140 143 145 145 147 151 153 157 164 170 174 179
284 279 275 272 274 275 272 281 289 285 261 224 194 175 168 169 174 179 183 187 194 178 142 125 137 146 148 149 147 147 149 151 155 162 167 171 177 184
289 281 273 267 266 266 259 272 283 263 218 188 170 163 156 158 165 169 171 171 168 150 139 138 144 149 152 155 156 159 160 163 167 170 175 182 189 194
291 282 271 260 254 245 235 250 257 209 186 171 161 157 156 158 163 164 161 158 150 141 139 142 147 151 152 154 159 165 170 173 175 179 184 187 191 194
289 282 268 249 233 215 205 209 191 170 165 160 153 150 150 152 157 159 157 153 141 135 139 144 146 148 151 154 158 161 165 170 175 178 180 183 185 189
288 283 260 229 204 183 171 165 157 154 154 152 148 145 145 144 146 149 149 141 127 131 139 144 146 148 148 151 156 161 164 166 168 171 174 179 188 194
286 282 238 202 182 165 157 153 151 152 153 150 148 145 141 140 143 146 142 131 124 131 139 145 149 149 150 152 157 160 162 164 167 172 182 188 184 172
281 261 201 182 167 157 154 154 154 156 155 152 148 143 138 138 142 143 136 128 127 130 137 142 146 149 152 157 162 166 168 170 174 181 179 168 161 159
158 180 176 171 160 156 155 157 159 161 162 160 156 152 147 144 145 144 139 136 135 136 139 142 145 150 157 164 171 176 178 179 177 172 165 160 159 159
99 135 155 162 159 158 158 160 162 164 167 167 163 161 158 155 152 150 145 143 144 146 147 148 151 155 161 173 182 187 181 173 165 161 160 160 160 160
86 122 148 155 154 157 161 163 164 164 165 167 167 165 163 160 157 156 154 152 152 154 156 157 160 165 170 175 181 182 177 166 161 161 162 162 162 162
74 108 143 154 155 154 160 165 168 168 169 169 169 168 167 165 161 159 158 159 161 164 166 166 168 170 174 172 167 164 163 162 161 162 163 165 167 168
62 92 134 150 153 151 156 162 168 172 174 175 174 173 173 171 168 166 165 168 172 175 175 174 174 173 170 164 159 158 161 163 165 166 167 171 174 176
59 77 123 145 154 152 150 157 164 170 177 181 181 179 178 178 179 178 178 179 180 179 177 174 173 172 168 164 161 161 165 169 171 173 175 178 181 184
Height
5601 5598 5594 5590 5587 5584 5581 5579 5577 5575 5575 5574 5571 5568 5565 5562 5560 5558 5557 5558 5560 5562 5565 5568 5571 5575 5580 5585 5594 5606 5619 5633 5647 5659 5671 5680 5689 5696
5591 5587 5583 5580 5576 5574 5571 5569 5567 5565 5565 5565 5562 5559 5556 5554 5551 5549 5548 5548 5550 5553 5554 5556 5559 5562 5565 5569 5576 5586 5599 5614 5629 5643 5655 5666 5675 5683
5582 5578 5574 5570 5567 5564 5562 5560 5559 5557 5556 5556 5554 5551 5549 5547 5545 5543 5542 5543 5544 5545 5547 5548 5550 5552 5554 5557 5562 5569 5581 5595 5611 5626 5639 5652 5662 5671
5575 5571 5567 5563 5559 5556 5554 5553 5552 5550 5549 5549 5547 5545 5543 5542 5541 5540 5539 5539 5540 5541 5542 5543 5544 5545 5546 5548 5551 5557 5567 5580 5595 5610 5626 5640 5651 5660
5568 5564 5560 5557 5553 5550 5548 5547 5545 5544 5543 5542 5541 5539 5539 5538 5538 5538 5537 5538 5538 5538 5539 5539 5539 5539 5539 5540 5544 5549 5557 5569 5584 5599 5614 5627 5640 5651
5560 5557 5554 5551 5548 5545 5543 5541 5540 5539 5537 5536 5535 5534 5534 5535 5535 5536 5536 5536 5537 5537 5537 5536 5535 5534 5533 5535 5539 5545 5552 5563 5576 5591 5606 5620 5632 5643
5552 5550 5547 5544 5542 5539 5538 5536 5535 5533 5532 5530 5530 5530 5530 5531 5533 5534 5535 5535 5536 5536 5535 5534 5531 5529 5530 5533 5537 5543 5551 5561 5574 5587 5601 5615 5627 5638
5544 5542 5540 5538 5536 5534 5532 5531 5530 5528 5527 5526 5525 5525 5526 5528 5530 5532 5534 5535 5536 5536 5535 5533 5531 5530 5531 5533 5537 5544 5552 5563 5575 5587 5600 5613 5623 5633
5535 5534 5533 5531 5530 5529 5528 5527 5525 5524 5524 5523 5523 5523 5523 5525 5528 5531 5533 5535 5536 5536 5536 5535 5534 5533 5535 5537 5542 5549 5557 5567 5577 5588 5600 5610 5621 5630
5526 5525 5525 5525 5524 5524 5523 5523 5522 5521 5521 5521 5521 5522 5522 5524 5527 5530 5533 5535 5537 5537 5538 5538 5538 5539 5542 5545 5551 5558 5564 5572 5582 5592 5602 5612 5621 5630
5518 5518 5518 5519 5519 5519 5519 5520 5519 5519 5519 5520 5521 5522 5523 5525 5527 5531 5534 5536 5537 5539 5540 5540 5542 5545 5549 5554 5559 5566 5573 5580 5589 5598 5606 5614 5622 5629
5512 5511 5512 5513 5515 5515 5516 5517 5517 5517 5518 5520 5522 5523 5524 5526 5529 5532 5535 5537 5539 5541 5542 5543 5547 5551 5555 5560 5566 5573 5580 5587 5594 5602 5609 5616 5623 5629
5507 5506 5507 5509 5510 5512 5513 5514 5515 5516 5517 5520 5523 5525 5527 5529 5531 5534 5537 5539 5541 5543 5544 5547 5551 5555 5561 5566 5572 5579 5586 5592 5598 5605 5611 5616 5622 5628
5502 5502 5503 5505 5507 5509 5511 5513 5514 5515 5518 5521 5524 5527 5529 5531 5534 5536 5539 5541 5543 5545 5547 5550 5555 5560 5566 5572 5578 5584 5590 5595 5601 5606 5611 5616 5621 5627
5498 5499 5500 5503 5505 5508 5510 5512 5514 5516 5519 5522 5525 5528 5531 5533 5536 5539 5542 5543 5545 5547 5550 5554 5559 5565 5570 5576 5582 5587 5592 5597 5602 5607 5612 5617 5622 5626
5496 5497 5498 5501 5504 5507 5510 5512 5515 5518 5521 5524 5527 5530 5533 5535 5538 5541 5544 5547 5549 5552 5555 5559 5564 5569 5574 5579 5585 5590 5594 5599 5603 5608 5613 5617 5621 5625
5494 5496 5498 5501 5503 5506 5510 5513 5516 5519 5522 5526 5530 5533 5536 5538 5541 5544 5547 5550 5553 5556 5560 5565 5569 5573 5578 5583 5587 5592 5596 5600 5604 5608 5613 5617 5621 5626
5495 5496 5498 5501 5503 5507 5510 5514 5517 5520 5524 5528 5531 5535 5538 5541 5544 5547 5551 5554 5557 5561 5565 5569 5574 5578 5583 5586 5590 5594 5597 5601 5605 5609 5613 5618 5623 5628
5496 5497 5498 5501 5504 5507 5511 5515 5519 5522 5525 5529 5533 5536 5540 5543 5547 5550 5554 5557 5561 5564 5568 5572 5576 5580 5585 5589 5592 5595 5599 5602 5607 5611 5616 5621 5625 5630
5498 5498 5500 5502 5505 5508 5512 5515 5519 5523 5527 5531 5535 5538 5542 5545 5549 5553 5556 5560 5563 5567 5571 5575 5578 5582 5585 5589 5593 5596 5599 5603 5608 5613 5618 5623 5628 5632
5500 5500 5501 5504 5506 5509 5512 5516 5520 5524 5528 5532 5536 5540 5544 5548 5552 5555 5559 5562 5566 5569 5573 5576 5579 5583 5586 5590 5593 5597 5602 5606 5611 5616 5621 5626 5630 5634
5502 5502 5503 5505 5508 5511 5514 5517 5521 5525 5529 5534 5538 5542 5546 5550 5554 5557 5561 5564 5567 5570 5574 5577 5580 5584 5587 5591 5595 5600 5604 5609 5613 5617 5622 5627 5632 5635
5506 5505 5506 5507 5510 5513 5516 5519 5522 5526 5530 5534 5538 5543 5547 5551 5555 5559 5562 5565 5568 5572 5575 5579 5582 5586 5589 5593 5597 5602 5607 5611 5615 5619 5624 5628 5632 5636